Location: Slanting_Bridge
(35.6330°N, 80.9830°W)
Time: 06:27:52
(UTC-04:00)

Amateur Radio Satellites - All Passes

Search period start: 23 April 2014 05:57
Search period end: 24 April 2014 05:57
Location: Slanting_Bridge, 35.6330°N, 80.9830°W

Satellite Date Start Highest point End Downlink Frequencies (MHz)
Time Altitude Azimuth
Gurwin Techsat 1B 23 Apr 05:59:58 06:02:35 14° 297° (WNW) 06:05:12 435.225 FM
MaSat-1 23 Apr 06:50:09 06:53:14 46° 66° (ENE) 06:56:55 437.345 MHz
STRAND 1 23 Apr 06:55:39 07:00:33 49° 72° (ENE) 07:05:28 ?
PANSAT 23 Apr 06:59:22 07:01:51 16° 164° (SSE) 07:04:20 not established
Hamsat 23 Apr 07:29:33 07:33:55 67° 101° (E) 07:38:15 145.90 MHz
AO-7 23 Apr 07:33:12 07:40:02 30° 300° (WNW) 07:46:53 29.400 - 29.500 MHz
SO-67 23 Apr 07:49:58 07:52:09 16° 94° (E) 07:54:20 435.3500 MHz FM
RS-15 23 Apr 08:06:00 08:16:56 52° 307° (NW) 08:27:35 29.354 - 29.394 USB, Beacon 29.352 USB
JAS-2 23 Apr 08:19:39 08:25:14 65° 102° (ESE) 08:31:29 435.800 - 435.900 CW/SSB, 435.910 FM
PCSat 23 Apr 08:26:26 08:29:34 15° 48° (NE) 08:32:40 145.825 MHz
STRAND 1 23 Apr 08:36:48 08:39:58 16° 267° (W) 08:43:08 ?
PANSAT 23 Apr 08:38:15 08:41:34 27° 176° (S) 08:44:53 not established
SO-67 23 Apr 09:22:27 09:25:16 23° 288° (WNW) 09:28:03 435.3500 MHz FM
Sapphire 23 Apr 09:23:49 09:28:57 41° 58° (ENE) 09:34:01 437.095 MHz 1200 baud AX-25 AFSK
HO-68 23 Apr 09:32:52 09:38:30 24° 95° (E) 09:44:06 435.675 MHz FM
Saudisat 1A 23 Apr 10:04:06 10:08:13 38° 114° (ESE) 10:12:22 436.775 MHz
JAS-2 23 Apr 10:06:41 10:09:55 16° 295° (WNW) 10:13:19 435.800 - 435.900 CW/SSB, 435.910 FM
PCSat 23 Apr 10:08:09 10:13:34 75° 246° (WSW) 10:18:57 145.825 MHz
PANSAT 23 Apr 10:18:11 10:21:21 24° 189° (S) 10:24:31 not established
RS-15 23 Apr 10:26:22 10:32:44 16° 336° (NNW) 10:39:04 29.354 - 29.394 USB, Beacon 29.352 USB
Oscar 11 23 Apr 10:54:22 10:58:37 50° 100° (E) 11:02:51 145.825 FM, Beacon 2401.500 USB
FUNcube-1 23 Apr 10:57:53 11:00:36 16° 94° (E) 11:03:20 145.950 - 145.970 MHz USB
KITSAT 1 23 Apr 11:06:22 11:13:36 34° 51° (NE) 11:20:45 435.175 FM
Sapphire 23 Apr 11:07:53 11:12:04 23° 254° (WSW) 11:16:14 437.095 MHz 1200 baud AX-25 AFSK
HO-68 23 Apr 11:19:30 11:26:28 56° 291° (WNW) 11:33:25 435.675 MHz FM
Saudisat 1A 23 Apr 11:44:35 11:47:57 21° 310° (NW) 11:51:19 436.775 MHz
PANSAT 23 Apr 11:59:39 12:00:59 12° 201° (SSW) 12:02:19 not established
Oscar 10/S400 23 Apr 12:15:20 13:57:56 42° 256° (WSW) 18:51:05 145.825 - 145.975 CW/USB, Beacon 145.810 USB
Oscar 11 23 Apr 12:32:25 12:34:20 13° 294° (WNW) 12:36:16 145.825 FM, Beacon 2401.500 USB
FUNcube-1 23 Apr 12:33:08 12:37:06 37° 287° (WNW) 12:41:08 145.950 - 145.970 MHz USB
RS-15 23 Apr 12:46:57 12:51:58 14° 16° (NNE) 12:57:00 29.354 - 29.394 USB, Beacon 29.352 USB
KITSAT 1 23 Apr 13:01:28 13:09:13 52° 249° (WSW) 13:16:55 435.175 FM
AO-27 23 Apr 13:41:31 13:45:13 20° 66° (ENE) 13:48:55 436.795 MHz FM
Oscar 19 23 Apr 13:44:49 13:49:35 40° 71° (ENE) 13:54:24 437.125 CW, 437.150 USB
ITAMSAT 1 23 Apr 13:50:37 13:54:42 24° 67° (ENE) 13:58:47 435.822 SSB
Oscar 16 23 Apr 13:53:38 13:58:37 54° 73° (ENE) 14:03:38 437.025 USB, Beacon 2401.1428
ISS 23 Apr 14:09:06 14:12:26 88° 318° (NW) 14:15:46 145.800 FM
Uribyol 2 23 Apr 14:36:39 14:41:47 74° 75° (ENE) 14:46:56 436.500 FM
TMSAT-1 23 Apr 14:44:00 14:47:19 17° 65° (ENE) 14:50:39 436.925 FM
JAS-1B 23 Apr 14:47:03 14:50:45 15° 62° (ENE) 14:54:12 435.800 - 435.900 CW/SSB
AO-7 23 Apr 14:50:07 14:52:09 11° 49° (NE) 14:54:10 29.400 - 29.500 MHz
AO-Echo 23 Apr 14:51:16 14:56:29 77° 76° (ENE) 15:01:35 ?
RS-15 23 Apr 14:58:39 15:08:44 40° 48° (NE) 15:19:00 29.354 - 29.394 USB, Beacon 29.352 USB
SO-50 23 Apr 15:16:06 15:20:32 68° 301° (WNW) 15:25:02 436.795 FM
Uosat F 23 Apr 15:17:32 15:19:15 12° 62° (ENE) 15:20:57 435.120 FM
AO-27 23 Apr 15:19:28 15:24:23 43° 261° (W) 15:29:19 436.795 MHz FM
Oscar 19 23 Apr 15:25:18 15:29:02 20° 266° (W) 15:32:49 437.125 CW, 437.150 USB
ITAMSAT 1 23 Apr 15:29:15 15:33:58 35° 262° (W) 15:38:42 435.822 SSB
Oscar 16 23 Apr 15:35:21 15:38:15 15° 268° (W) 15:41:10 437.025 USB, Beacon 2401.1428
Gurwin Techsat 1B 23 Apr 15:36:04 15:41:22 79° 75° (ENE) 15:46:41 435.225 FM
ISS 23 Apr 15:47:54 15:49:34 13° 335° (NNW) 15:51:15 145.800 FM
Uribyol 2 23 Apr 16:20:41 16:21:44 11° 269° (W) 16:22:46 436.500 FM
TMSAT-1 23 Apr 16:21:37 16:26:46 54° 260° (W) 16:31:57 436.925 FM
OPAL 23 Apr 16:23:40 16:28:55 85° 286° (WNW) 16:34:07 ?
JAS-1B 23 Apr 16:32:41 16:40:48 88° 255° (WSW) 16:47:33 435.800 - 435.900 CW/SSB
AO-7 23 Apr 16:35:09 16:43:13 60° 68° (ENE) 16:51:18 29.400 - 29.500 MHz
AO-Echo 23 Apr 16:35:15 16:35:41 10° 269° (W) 16:36:06 ?
Uosat F 23 Apr 16:52:22 16:57:22 74° 257° (WSW) 17:02:24 435.120 FM
RS-15 23 Apr 17:10:49 17:21:26 58° 248° (WSW) 17:32:24 29.354 - 29.394 USB, Beacon 29.352 USB
UOSAT-12 23 Apr 17:13:57 17:18:29 81° 300° (WNW) 17:23:08 437.025 FM, 437.400 FM
Gurwin Techsat 1B 23 Apr 17:21:15 17:21:51 10° 270° (W) 17:22:27 435.225 FM
Hamsat 23 Apr 18:20:29 18:24:12 32° 72° (ENE) 18:27:59 145.90 MHz
JAS-1B 23 Apr 18:28:38 18:31:43 13° 267° (W) 18:34:37 435.800 - 435.900 CW/SSB
AO-7 23 Apr 18:29:45 18:36:21 26° 264° (W) 18:43:00 29.400 - 29.500 MHz
JAS-2 23 Apr 18:31:36 18:35:11 18° 66° (ENE) 18:38:37 435.800 - 435.900 CW/SSB, 435.910 FM
Saudisat 1A 23 Apr 18:34:38 18:37:18 16° 47° (NE) 18:39:56 436.775 MHz
UOSAT-12 23 Apr 18:58:53 18:59:24 10° 318° (NW) 18:59:54 437.025 FM, 437.400 FM
STRAND 1 23 Apr 19:10:03 19:13:52 21° 95° (E) 19:17:39 ?
SO-67 23 Apr 19:52:28 19:55:56 69° 77° (ENE) 19:59:25 435.3500 MHz FM
Hamsat 23 Apr 19:57:26 20:00:15 17° 266° (W) 20:03:05 145.90 MHz
HO-68 23 Apr 20:01:09 20:04:33 14° 56° (NE) 20:07:57 435.675 MHz FM
Saudisat 1A 23 Apr 20:12:56 20:17:13 53° 244° (WSW) 20:21:27 436.775 MHz
JAS-2 23 Apr 20:14:21 20:19:58 51° 259° (W) 20:25:08 435.800 - 435.900 CW/SSB, 435.910 FM
ISS 23 Apr 20:40:30 20:43:31 30° 35° (NE) 20:46:30 145.800 FM
STRAND 1 23 Apr 20:48:26 20:53:08 38° 289° (WNW) 20:57:49 ?
MaSat-1 23 Apr 20:50:39 20:53:31 45° 112° (ESE) 20:56:03 437.345 MHz
HO-68 23 Apr 21:44:02 21:51:09 83° 73° (ENE) 21:58:20 435.675 MHz FM
Oscar 11 23 Apr 21:47:01 21:50:39 27° 71° (ENE) 21:54:19 145.825 FM, Beacon 2401.500 USB
ISS 23 Apr 22:17:24 22:20:07 23° 230° (SW) 22:22:50 145.800 FM
PCSat 23 Apr 23:05:09 23:09:10 22° 106° (ESE) 23:13:11 145.825 MHz
Oscar 11 23 Apr 23:23:31 23:26:48 21° 265° (W) 23:30:07 145.825 FM, Beacon 2401.500 USB
FUNcube-1 23 Apr 23:26:38 23:30:47 65° 259° (W) 23:34:56 145.950 - 145.970 MHz USB
HO-68 23 Apr 23:35:53 23:39:32 15° 269° (W) 23:43:13 435.675 MHz FM
SO-50 23 Apr 23:50:29 23:54:59 46° 57° (ENE) 23:59:32 436.795 FM
Sapphire 24 Apr 00:02:20 00:07:42 70° 114° (ESE) 00:13:06 437.095 MHz 1200 baud AX-25 AFSK
PCSat 24 Apr 00:47:05 00:52:13 44° 301° (WNW) 00:57:24 145.825 MHz
KITSAT 1 24 Apr 01:31:44 01:38:41 33° 106° (ESE) 01:45:39 435.175 FM
SO-50 24 Apr 01:32:12 01:35:11 17° 251° (WSW) 01:38:10 436.795 FM
UOSAT-12 24 Apr 01:46:31 01:50:56 38° 55° (NE) 01:55:18 437.025 FM, 437.400 FM
Sapphire 24 Apr 01:48:20 01:51:39 16° 311° (NW) 01:54:59 437.095 MHz 1200 baud AX-25 AFSK
OPAL 24 Apr 02:00:07 02:02:34 14° 61° (ENE) 02:05:02 ?
Oscar 19 24 Apr 02:00:19 02:03:52 18° 94° (E) 02:07:24 437.125 CW, 437.150 USB
Oscar 16 24 Apr 02:08:57 02:13:09 24° 95° (E) 02:17:20 437.025 USB, Beacon 2401.1428
Uribyol 2 24 Apr 02:52:45 02:57:25 33° 98° (E) 03:02:03 436.500 FM
AO-Echo 24 Apr 03:02:17 03:06:23 29° 97° (E) 03:10:26 ?
KITSAT 1 24 Apr 03:25:53 03:33:43 51° 304° (WNW) 03:41:36 435.175 FM
UOSAT-12 24 Apr 03:27:20 03:30:48 21° 250° (WSW) 03:34:15 437.025 FM, 437.400 FM
AO-27 24 Apr 03:35:11 03:40:23 86° 103° (ESE) 03:45:34 436.795 MHz FM
OPAL 24 Apr 03:35:50 03:40:49 67° 256° (WSW) 03:45:55 ?
Oscar 19 24 Apr 03:38:27 03:43:23 45° 288° (WNW) 03:48:19 437.125 CW, 437.150 USB
ITAMSAT 1 24 Apr 03:44:35 03:49:46 79° 285° (WNW) 03:54:56 435.822 SSB
Oscar 16 24 Apr 03:47:50 03:52:30 34° 290° (WNW) 03:57:09 437.025 USB, Beacon 2401.1428
Gurwin Techsat 1B 24 Apr 03:55:35 04:00:34 40° 98° (E) 04:05:30 435.225 FM
JAS-1B 24 Apr 04:21:20 04:25:59 25° 97° (E) 04:30:56 435.800 - 435.900 CW/SSB
Uribyol 2 24 Apr 04:32:30 04:36:43 26° 292° (WNW) 04:40:56 436.500 FM
TMSAT-1 24 Apr 04:40:19 04:45:38 78° 103° (ESE) 04:50:55 436.925 FM
AO-7 24 Apr 04:41:14 04:47:25 23° 95° (E) 04:53:35 29.400 - 29.500 MHz
AO-Echo 24 Apr 04:41:16 04:45:01 24° 292° (WNW) 04:48:43 ?
Uosat F 24 Apr 05:03:15 05:08:01 43° 99° (E) 05:12:45 435.120 FM
AO-27 24 Apr 05:18:23 05:19:07 10° 299° (WNW) 05:19:52 436.795 MHz FM
RS-15 24 Apr 05:19:52 05:29:12 31° 105° (ESE) 05:38:14 29.354 - 29.394 USB, Beacon 29.352 USB
KITSAT 1 24 Apr 05:28:16 05:31:17 12° 327° (NNW) 05:34:17 435.175 FM
Gurwin Techsat 1B 24 Apr 05:36:12 05:40:14 23° 293° (WNW) 05:44:16 435.225 FM
